Weather observations for the past three days for
Penn Yan, Penn Yan Airport
Imperial (Metric)
Date Time (edt) Wind (mph) Vis. (mi.) Weather Sky Cond. Temperature (ºF) Relative Humidity Wind Chill (°F) Heat Index (°F) Pressure Precipitation (in)
Air Dwpt 6 hour altimeter (in) sea level (mb) 1 hr 3 hr 6 hr
Max. Min.
21 17:53 E 5 10.00 Overcast BKN047 OVC055 79 61 54% 80 30.07 1017.5
21 16:53 SE 3 10.00 Mostly Cloudy SCT050 BKN060 78.1 61 56% 80 30.08 1017.9
21 15:53 N 7 10.00 Partly Cloudy FEW050 SCT075 80.1 57.9 47% 81 30.08 1018.0
21 14:53 S 3 10.00 Partly Cloudy FEW047 SCT070 80.1 57.9 47% 81 30.08 1018.1
21 13:53 W 7 10.00 Mostly Cloudy SCT047 BKN065 79 59 80.1 64 50% 80 30.09 1018.2
21 12:53 Vrbl 7 10.00 Partly Cloudy SCT047 SCT070 78.1 57 48% 79 30.09 1018.3
21 11:53 NW 5 10.00 Fair CLR 77 57.9 52% 79 30.09 1018.4
21 10:53 Calm 10.00 Fair CLR 75.9 59 56% 78 30.1 1018.5
21 09:53 SW 5 10.00 Fair CLR 72 61 68% 30.09 1018.4
21 08:53 S 7 10.00 Fair CLR 68 57.9 70% 30.1 1018.7
21 07:53 S 7 10.00 Fair CLR 64 57 64 59 78% 30.09 1018.5
21 06:53 SW 7 10.00 Fair CLR 61 55.9 84% 30.08 1018.1
21 05:53 SW 7 10.00 Fair CLR 60.1 55.9 86% 30.07 1017.9
21 04:53 SW 3 10.00 Fair CLR 60.1 55.9 86% 30.06 1017.5
21 03:53 SW 6 10.00 Fair CLR 61 57 87% 30.06 1017.4
21 02:53 SW 3 10.00 Fair CLR 60.1 57 90% 30.07 1017.7
21 01:53 SW 3 10.00 Fair CLR 62.1 57.9 75.9 61 86% 30.07 1017.7
21 00:53 SW 3 10.00 Fair CLR 62.1 57.9 86% 30.07 1017.6
20 23:53 Calm 10.00 Fair CLR 63 57 81% 30.07 1017.8
20 22:53 Calm 10.00 Fair CLR 63 57 81% 30.08 1018.0
20 21:53 SE 3 10.00 Fair CLR 62.1 57 84% 30.08 1018.1
20 20:53 Calm 10.00 Fair CLR 72 54 53% 30.07 1017.5
20 19:53 N 5 10.00 Fair CLR 75.9 51.1 81 75.9 42% 78 30.06 1017.2
20 18:53 NW 6 10.00 Fair CLR 78.1 52 40% 79 30.05 1017.0
20 17:53 NW 9 G 16 10.00 Fair CLR 80.1 53.1 39% 80 30.05 1016.9
20 16:53 NW 8 10.00 Fair CLR 81 53.1 38% 80 30.06 1017.3
20 15:53 Vrbl 6 10.00 A Few Clouds FEW055 79 57.9 49% 80 30.07 1017.6
20 14:53 Vrbl 7 10.00 Fair CLR 79 59 50% 80 30.08 1017.8
20 13:53 Calm 10.00 A Few Clouds FEW050 78.1 57 79 62.1 48% 79 30.09 1018.2
20 12:53 Vrbl 3 10.00 Fair CLR 77 55 47% 78 30.1 1018.9
20 11:53 W 5 10.00 Fair CLR 75 54 48% 78 30.11 1019.1
20 10:53 Vrbl 3 10.00 Fair CLR 73.9 55.9 54% 30.11 1019.2
20 09:53 Vrbl 3 10.00 Fair CLR 71.1 60.1 68% 30.12 1019.5
20 08:53 S 7 10.00 Fair CLR 66 59 78% 30.14 1020.1
20 07:53 S 7 10.00 Fair CLR 62.1 59 63 57.9 90% 30.14 1020.0
20 06:53 SW 6 10.00 Fair CLR 60.1 57.9 93% 30.13 1019.9
20 05:53 SW 5 10.00 Fair CLR 59 57 93% 30.13 1019.8
20 04:53 SW 3 10.00 Fair CLR 59 57.9 96% 30.12 1019.5
20 03:53 SW 5 10.00 Fair CLR 59 57.9 96% 30.12 1019.5
20 02:53 Calm 10.00 Fair CLR 59 57.9 96% 30.14 1020.3
20 01:53 Calm 10.00 Fair CLR 59 57 73 57 93% 30.16 1020.8
20 00:53 SW 3 10.00 Fair CLR 59 55.9 90% 30.16 1020.8
19 23:53 Calm 10.00 Fair CLR 57.9 55.9 93% 30.16 1021.0
19 22:53 S 3 10.00 Fair CLR 59 55.9 90% 30.15 1020.7
19 21:53 Calm 10.00 Fair CLR 64.9 57 76% 30.15 1020.5
19 20:53 Calm 10.00 Fair CLR 64 57 78% 30.14 1020.2
19 19:53 Calm 10.00 Fair CLR 72 57 77 72 59% 30.13 1019.9
19 18:53 E 3 10.00 Fair CLR 73 55 53% 30.13 1019.9
19 17:53 Calm 10.00 Mostly Cloudy FEW047 BKN055 75.9 55 48% 78 30.14 1020.0
19 16:53 W 5 10.00 Fair CLR 75 55 50% 78 30.15 1020.3
19 15:53 W 5 10.00 A Few Clouds FEW060 75 55 50% 78 30.15 1020.5
19 14:53 Vrbl 5 10.00 A Few Clouds FEW060 75 55 50% 78 30.16 1021.0
19 13:53 Calm 10.00 Fair CLR 73.9 54 75 60.1 50% 30.17 1021.1
19 12:53 Vrbl 6 10.00 Fair CLR 73 54 51% 30.19 1021.8
19 11:53 W 3 10.00 A Few Clouds FEW039 72 55 55% 30.2 1022.0
19 10:53 SE 3 10.00 A Few Clouds FEW044 68 54 61% 30.2 1022.2
19 09:53 Calm 10.00 Fair CLR 68 57 68% 30.2 1022.2
19 08:53 Vrbl 3 10.00 Fair CLR 64 57 78% 30.2 1022.4
19 07:53 S 7 10.00 Fair CLR 60.1 57 61 57.9 90% 30.19 1021.8
19 06:53 W 7 10.00 Fair CLR 60.1 55 84% 30.16 1021.0
19 05:53 SW 5 10.00 Mostly Cloudy BKN048 60.1 55 84% 30.15 1020.5
19 04:53 Calm 10.00 Partly Cloudy SCT034 SCT055 59 54 83% 30.13 1019.8
19 03:53 SW 5 10.00 Fair CLR 60.1 53.1 78% 30.12 1019.6
19 02:53 SW 5 10.00 Fair CLR 57.9 53.1 84% 30.12 1019.5
19 01:53 S 6 10.00 Fair CLR 59 53.1 69.1 59 81% 30.12 1019.7
19 00:53 Calm 10.00 Fair CLR 60.1 53.1 78% 30.12 1019.7
18 23:53 S 3 10.00 Fair CLR 60.1 53.1 78% 30.12 1019.5
18 22:53 Calm 10.00 Fair CLR 61 54 78% 30.11 1019.2
18 21:53 Calm 10.00 Fair CLR 63 54 73% 30.1 1018.9
18 20:53 Calm 10.00 Fair CLR 64.9 52 63% 30.08 1018.1
18 19:53 NW 6 10.00 Fair CLR 69.1 52 75 69.1 55% 30.06 1017.5
18 18:53 N 8 10.00 A Few Clouds FEW055 69.1 52 55% 30.05 1017.1
Date Time (edt) Wind (mph) Vis. (mi.) Weather Sky Cond. Air Dwpt Max. Min. Relative Humidity Wind Chill (°F) Heat Index (°F) altimeter (in) sea level (mb) 1 hr 3 hr 6 hr
6 hour
Temperature (ºF) Pressure Precipitation (in)